Regional Weather Roundup
Issued by NWS Newport/Morehead, NC

Current Version |  Previous Version |  Text Only |  Print | Product List |  Glossary Off
Versions: 1 2 3 4 5 6 7 8 9 10 11 12 13 14 15 16 17 18 19 20 21 22 23 24 25 26 27 28 29 30 31 32 33 34 35 36 37 38 39 40 41 42 43 44 45 46 47 48 49 50
976
ASUS42 KMHX 240515
RWRMHX
WEATHER ROUNDUP FOR EASTERN NORTH CAROLINA
NATIONAL WEATHER SERVICE NEWPORT/MOREHEAD CITY NC
100 AM EDT WED JUL 24 2024

NOTE: "FAIR" INDICATES FEW OR NO CLOUDS BELOW 12,000 FEET
WITH NO SIGNIFICANT WEATHER AND/OR OBSTRUCTIONS TO VISIBILITY

NCZ015>017-031-032-045>047-102-103-240600-
NORTH COAST

CITY           SKY/WX    TMP DP  RH WIND       PRES   REMARKS
EDENTON        DRIZZLE   78  78 100 SW6       30.14F
ELIZABETH CITY LGT RAIN  74  73  97 W7        30.13F
KITTY HAWK     MOCLDY    80  76  90 SW7       30.13S
MANTEO         MOCLDY    80  76  88 SW12      30.15S

$$

NCZ045>047-081-094-103-104-240600-
CENTRAL COAST

CITY           SKY/WX    TMP DP  RH WIND       PRES   REMARKS
FRISCO         MOCLDY    81  80  97 SW9       30.17R
ENGELHARD      MOCLDY    79  77  93 CALM      30.15F

$$

NCZ095-097-098-100-101-240600-
SOUTHERN COAST

CITY           SKY/WX    TMP DP  RH WIND       PRES   REMARKS
PINEY ISLAND   MOCLDY    87  81  82 S7        30.16S HX 104
HAVELOCK       MOCLDY    81  79  94 S8        30.17S
BEAUFORT       MOCLDY    84  79  85 S14       30.17S
CAPE CARTERET  MOCLDY    83  79  88 SW12G21   30.17S
JACKSONVILLE   CLOUDY    81  78  91 SW6       30.16R
WILMINGTON     MOCLDY    83  77  82 S8        30.17R


$$

NCZ011>013-027>030-043-044-078>080-089-090>093-098-240600-
COASTAL PLAIN

CITY           SKY/WX    TMP DP  RH WIND       PRES   REMARKS
AHOSKIE        CLOUDY    72  72 100 SW3       30.12S
TARBORO        CLOUDY    74  73  96 S5        30.14R
WILLIAMSTON    CLOUDY    74  73  96 S9        30.14R
ROCKY MOUNT    CLOUDY    74  72  93 CALM      30.14R
GREENVILLE     CLOUDY    73  73 100 CALM      30.14F
WASHINGTON     LGT RAIN  74  73  93 S5        30.16S
GOLDSBORO      CLOUDY    74  74 100 S5        30.16R
KINSTON        CLOUDY    76  73  92 S7G18     30.15F FOG
MOUNT OLIVE    RAIN      74  73  95 S6        30.16S
NEW BERN       CLOUDY    81  78  91 CALM      30.17R
KENANSVILLE    NOT AVBL
RICHLANDS      CLOUDY    80  78  94 S6        30.17S
WALLACE        CLOUDY    79  77  92 CALM      30.16S
CLINTON        CLOUDY    77  77 100 CALM      30.16S
ELIZABETHTOWN  CLOUDY    80  77  92 S6        30.16S
WHITEVILLE     MOCLDY    81  77  86 S6        30.17S

$$

AMZ130-135-150-152-154-156-158-170-250-252-270-ANZ085-086-088-633-658-670-240600-
MARINE OBSERVATIONS

STATION/POSITION TIME  TEMP    WIND        PRES    WAVE   SWELL
                       AIR SEA DIR/SP/G            HT/PER HT/PER
                 (UTC) (F)     (DEG/KT/KT) (MB)    (FT/S) (FT/S)
64 E VA BEACH    0500   80 80  200/ 12/ 14 1020.2
64 E VA BEACH    0400   80 80                N/A     4/ 6   2/10
DUCK PIER        0430   82     230/ 15/ 19 1020.4
2 E DUCK         0456      66                N/A     2/ 5
10 NE DUCK       0430   79 79                N/A     3/ 8   2/10
OREGON INLET     0430   80 86  250/ 13/ 14 1022.1
13E OREGON INLT  0456      74                N/A     3/ 6   2/ 6
13E CAPE HATTERA 0400      80                N/A     3/ 6
HATTERAS CG      0430   80 82  220/  7/ 10 1022.6
DIAMOND BUOY     0500      85  220/ 17/ 21 1021.2
CAPE LOOKOUT     0500   83     210/ 11/ 14 1021.8
BEAUFORT LAB     0430   83 84  230/  6/ 11 1021.2
30 SE NEW RVR IN NOT AVBL
30 SE NEW RVR IN 0456      83                N/A     4/ 7
27 SE WRIGHTSVLE NOT AVBL
5 SE WRIGHTSVLE  NOT AVBL
27 SE WRIGHTSVL  NOT AVBL
FRYING PAN BUOY  0500   84 83  200/ 17/ 23 1022.5
225 S CAPE HAT   0450   84 85  190/ 14/ 17 1023.1    4/ 5   2/ 8
41 SE CHARLESTON 0500   85 85  200/ 17/ 21 1021.7

$$